Weather Roundup
Issued by NWS Springfield, MO

Home | Current Version | Previous Version | Text Only | Print | Product List | Glossary On
Versions: 1 2 3 4 5 6 7 8 9 10 11 12 13 14 15 16 17 18 19 20 21 22 23 24 25 26 27 28 29 30 31 32 33 34 35 36 37 38 39 40 41 42 43 44 45 46 47 48 49 50
000
NZUS99 KSGF 242259
HRRSGF

HOURLY WEATHER
NATIONAL WEATHER SERVICE SPRINGFIELD MO
600 PM CDT FRI OCT 24 2014

......SGF CWA......

CITY           SKY/WX    TMP DP  RH WIND       PRES   REMARKS
SPRINGFIELD    CLOUDY    69  61  75 SW6       30.05S
JOPLIN         MOCLDY    71  61  70 SW8       30.04S
WEST PLAINS    PTCLDY    68  57  68 S3        30.08S
ROLLA          MOCLDY    67  58  72 S8        30.01F
OSAGE BEACH    MOCLDY    73  59  60 S9        30.01F
BRANSON        CLOUDY    72  61  68 SW3       30.08R

......SURROUNDING SGF CWA......

CITY           SKY/WX    TMP DP  RH WIND       PRES   REMARKS
CHANUTE        MOCLDY    74  63  68 S12       30.01S
PARSONS        PTCLDY    74  62  66 S7        30.03S
COFFEYVILLE    PTCLDY    73  62  68 S8        30.01F
EMPORIA        PTCLDY    71  60  68 SW12      29.96F
SILOAM SPRINGS MOCLDY    70  57  64 S8        30.09R
HARRISON AR    CLOUDY    71  62  73 S3        30.07S
NEAR YELLVILLE MOCLDY    70  57  64 CALM      30.06F

......KANSAS AND MISSOURI......

CITY           SKY/WX    TMP DP  RH WIND       PRES   REMARKS
KANSAS CTY INT MOCLDY    73  63  70 SW13      29.93S
DOWNTOWN KC    PTCLDY    75  62  64 S13       29.93S
COLUMBIA       MOCLDY    69  60  73 S8        29.99S
SEDALIA        MOCLDY    73  61  65 SW9       29.99S
ST JOSEPH      MOCLDY    75  63  66 SW9       29.91R
ST LOUIS       MOCLDY    71  49  45 S5        30.00F
SPIRIT OF STL  MOCLDY    68  50  52 S3        29.99F
KIRKSVILLE     MOCLDY    67  61  81 S9        29.93F
WICHITA        PTCLDY    81  60  48 SW10      29.99R
TOPEKA         PTCLDY    78  63  59 S7        29.93S
OLATHE         CLEAR     73  63  70 S8        29.95F

......TENNESSEE......

CITY           SKY/WX    TMP DP  RH WIND       PRES   REMARKS
MEMPHIS        PTCLDY    71  53  52 CALM      30.08S
NASHVILLE      MOCLDY    65  46  50 NW5       30.07R

......ARKANSAS.......

CITY           SKY/WX    TMP DP  RH WIND       PRES   REMARKS
FAYETTEVILLE   MOCLDY    68  60  75 S3        30.08S
FT SMITH       CLOUDY    75  60  59 CALM      30.05F
LITTLE ROCK    PTCLDY    72  55  55 S7        30.08S

......OKLAHOMA.......

CITY           SKY/WX    TMP DP  RH WIND       PRES   REMARKS
TULSA          MOCLDY    79  63  57 S10       30.01S
PONCA CITY     CLEAR     82  61  48 SW7       29.99S
MCALESTER      CLEAR     77  61  57 S6        30.06S
OKLAHOMA CITY  MOCLDY    81  60  48 S9        30.02F

......IOWA............

CITY           SKY/WX    TMP DP  RH WIND       PRES   REMARKS
DES MOINES     CLOUDY    66  60  81 SW5       29.90R
QUAD CITIES    CLOUDY    67  53  61 S8        29.90F

......ILLINOIS........

CITY           SKY/WX    TMP DP  RH WIND       PRES   REMARKS
QUINCY         PTCLDY    67  55  65 S8        29.95F
CHICAGO        MOCLDY    63  45  51 S8        29.94F




USA.gov is the U.S. government's official web portal to all federal, state and local government web resources and services.